User: anonymous   Login
Location: Unspecified
(0.0000°N, 0.0000°E)
Time: 23:40:34
(UTC+00:00)
Language:

APRIZESAT 3 - Orbit

View from above orbital plane
View from above orbital plane
View from above satellite
View from above satellite

Ground track
Ground track

The orbit data is extracted from the following two-line orbital elements,

1 35686U 09041F   16211.49694238  .00000145  00000-0  22469-4 0  9995
2 35686  98.2493 191.9621 0073101 343.2501  16.6300 14.86902468379232
Epoch (UTC): 29 July 2016 11:55:35
Eccentricity: 0.0073101
inclination: 98.2493°
perigee height: 556 km
apogee height: 658 km
right ascension of ascending node: 191.9621°
argument of perigee: 343.2501°
revolutions per day: 14.86902468
mean anomaly at epoch: 16.6300°
orbit number at epoch: 37923

The dashed part of the orbit path shows where the satellite is in the earth's shadow,  

DLR